Location: Bédeille
(43.0872°N, 1.1041°E)
Time: 03:28:34
(UTC+00:00)

IRIDIUM 104 - Pass Details

Date: 03 February 2023
Orbit: 776 x 779 km, 86.4° (Epoch: 27 March)

Event Time Altitude Azimuth Distance (km) Brightness Sun altitude
Rises 18:27:15 0° 0° (N) 3,274 7.5 -14.3°
Reaches altitude 10° 18:29:39 10° 5° (N) 2,341 6.7 -14.8°
Maximum altitude 18:34:50 58° 84° (E) 906 4.3 -15.7°
Drops below altitude 10° 18:39:57 10° 164° (SSE) 2,323 6.7 -16.6°
Sets 18:42:19 0° 168° (SSE) 3,246 7.5 -17.1°
